Location: Little Chesterford
(52.0500°N, 0.1833°E)
Time: 15:24:40
(UTC+00:00)

CARTOSAT-1 - Pass Details

Date: 26 September 2023
Orbit: 610 x 611 km, 97.6° (Epoch: 07 December)

Event Time Altitude Azimuth Distance (km) Brightness Sun altitude
Exits shadow 20:22:31 62° 199° (SSW) 694 3.6 -23.4°
Maximum altitude 20:23:07 74° 256° (WSW) 641 3.6 -23.5°
Drops below altitude 10° 20:27:26 10° 343° (NNW) 1,979 6.8 -24.1°
Sets 20:29:38 0° 345° (NNW) 2,888 7.7 -24.4°
